Overview Statistics Trail Chart Weather Telemetry Raw packets
 

This is the latest recevied weather packets stored in our database for station/object IZ5MJO-13. If no packets are shown the sender has not sent any weather packets the latest 10 day(s).

<< 2 3 4 5 6 7 8 >>
Time Temp. Humidity Pressure Rain* Wind** Luminosity Snow
1788527125 38.33° C 29% 1009.1 hPa - - - -
1788526224 38.33° C 28% 1009.3 hPa - - - -
1788525323 37.22° C 30% 1009.3 hPa - - - -
1788524423 37.22° C 32% 1009.4 hPa - - - -
1788523523 36.67° C 29% 1009.6 hPa - - - -
1788522627 36.67° C 27% 1009.7 hPa - - - -
1788521726 36.11° C 29% 1009.8 hPa - - - -
1788520826 36.11° C 31% 1009.9 hPa - - - -
1788519925 35° C 36% 1009.9 hPa - - - -
1788519025 33.33° C 39% 1009.9 hPa - - - -
1788518125 32.22° C 37% 1010 hPa - - - -
1788517225 31.67° C 39% 1010.1 hPa - - - -
1788516325 31.11° C 40% 1010.2 hPa - - - -
1788515424 30.56° C 41% 1010.3 hPa - - - -
1788514524 30° C 43% 1010.3 hPa - - - -
1788513624 29.44° C 42% 1010.3 hPa - - - -
1788512724 28.89° C 44% 1010.4 hPa - - - -
1788511824 28.33° C 45% 1010.4 hPa - - - -
1788510923 28.33° C 45% 1010.4 hPa - - - -
1788510023 27.78° C 46% 1010.4 hPa - - - -
1788509123 27.78° C 48% 1010.3 hPa - - - -
1788508223 26.67° C 49% 1010.2 hPa - - - -
1788507323 26.11° C 50% 1010.2 hPa - - - -
1788506422 25.56° C 50% 1010.1 hPa - - - -
1788505522 25.56° C 51% 1010 hPa - - - -

* Rain since midnight (hover to see other rain measurements)
** Current wind speed in m/s (hover to see current wind gust speed)